Tuesday, July 29, 2014
12:50 UTC
  |  Log In   |  Register Free
Airport Search:

Gainesville Municipal Airport
(KGLE)

Gainesville Municipal Airport Diagram
No Airport Diagram Available

FAA data valid effective July 24, 2014 until September 18, 2014 (unless otherwise noted).

 
 
 
 
 
 
 
 
 
 
 
 
 
 

Current Aviation Weather for Gainesville Municipal Airport (KGLE)

The most recent METAR observation for KGLE was updated at: 1835 UTC
METAR Summary (Translated METAR)
KGLE
281835Z AUTO 32015KT 10SM BKN110 29/19 A3021 RMK AO2 T02860188
KGYI
(26.4 nm NE from KGLE)
281835Z AUTO 03006KT 10SM SCT090 BKN110 31/15 A3017 RMK AO2 T03070153
TAF
No TAF information found within 50 nm of KGLE
  Airport Weather Conditions for KGLE

 Current Weather at GLE
71° F
Partly Cloudy
North winds at 4.6 mph
GLE NOAA Radar

Pressure: 30.16 in
Humidity: 86%
Wind: North at 4.6 MPH (4 KT)
Dew Point: 66.4°F
Visibility: 10.00 mi


Airport Weather Forecast for KGLE

Translated METAR and TAF for KGLE
Translated METAR for KGLE (1243 UTC 29 July 2014)
found at http://aviationweather.gov/adds/metars/
 
METAR text: KGLE 291235Z AUTO 04006KT 10SM SCT110 22/19 A3017 RMK AO2 T02200190
Conditions at: KGLE (GAINESVILLE , TX, US) observed 1235 UTC 29 July 2014
Temperature: 22.0°C (72°F)
Dewpoint: 19.0°C (66°F) [RH = 83%]
Pressure (altimeter): 30.17 inches Hg (1021.8 mb)
Winds: from the NE (40 degrees) at 7 MPH (6 knots; 3.1 m/s)
Visibility: 10 or more miles (16+ km)
Ceiling: at least 12,000 feet AGL
Clouds: scattered clouds at 11000 feet AGL
Weather: automated observation with no human augmentation;
there may or may not be significant weather present at this time
Translated TAF for KGLE

There is no translated TAF available for this airport

Find All Airport Services Find A Hotel Find A Rental Car Find A Golf Course Find A Restaurant $100 Hamburger



FBO's on the Field
FBO Company Facility Photos Services Transportation Aviation Fuel Prices: Prices include tax
Catering Weather Repair Courtesy Rental Type 100LL JetA JetA+ MOGAS 8087
 
City of Gainesville Municipal Airport

This FBO has not yet been rated
FS:Phillips66
Last Updated: Jul-09
Login to update fuel prices
SS:
Contact City of Gainesville Municipal AirportMore FBO Information
 
Add another FBO Facility Photos Catering Weather Repair Courtesy Rental Type 100LL JetA JetA+ MOGAS 8087
Services Transportation Aviation Fuel Prices: Prices include tax


GlobalAir.com Airport Resource Center model-print
model-print
model-print
model-print